EN

Hourly Weather Panino

Today, 24 February, Wednesday

Time Temperature Precipitation Wind Pressure Humidity
00:00 -30°C° 0 mm 2 mps 768 mmHg 94%
01:00 -30°C° 0 mm 2 mps 768 mmHg 94%
02:00 -28°C° 0 mm 1 mps 768 mmHg 94%
03:00 -28°C° 0 mm 1 mps 768 mmHg 96%
04:00 -28°C° 0 mm 1 mps 768 mmHg 96%
05:00 -27°C° 0 mm 0 mps 768 mmHg 95%
06:00 -27°C° 0 mm 0 mps 768 mmHg 95%
07:00 -26°C° 0 mm 0 mps 768 mmHg 93%
08:00 -25°C° 0 mm 0 mps 768 mmHg 92%
09:00 -24°C° 0 mm 0 mps 768 mmHg 89%
10:00 -23°C° 0 mm 1 mps 767 mmHg 87%
11:00 -22°C° 0 mm 1 mps 767 mmHg 86%
12:00 -20°C° 0 mm 1 mps 767 mmHg 84%
13:00 -21°C° 0 mm 2 mps 766 mmHg 84%
14:00 -20°C° 0 mm 2 mps 766 mmHg 84%
15:00 -20°C° 0 mm 2 mps 765 mmHg 81%
16:00 -20°C° 0 mm 2 mps 765 mmHg 84%
17:00 -20°C° 0 mm 2 mps 764 mmHg 87%
18:00 -20°C° 0 mm 2 mps 764 mmHg 89%
19:00 -21°C° 0 mm 3 mps 763 mmHg 90%
20:00 -21°C° 0 mm 3 mps 763 mmHg 91%
21:00 -20°C° 0 mm 4 mps 763 mmHg 92%
22:00 -20°C° 0.1 mm 4 mps 762 mmHg 93%
23:00 -19°C° 0.1 mm 4 mps 762 mmHg 94%

Tomorrow, 25 February, Thursday

Time Temperature Precipitation Wind Pressure Humidity
00:00 -19°C° 0.1 mm 4 mps 762 mmHg 95%
01:00 -18°C° 0.1 mm 4 mps 761 mmHg 94%
02:00 -19°C° 0.1 mm 5 mps 761 mmHg 94%
03:00 -19°C° 0.1 mm 5 mps 760 mmHg 94%
04:00 -18°C° 0.1 mm 5 mps 759 mmHg 94%
05:00 -17°C° 0.1 mm 5 mps 759 mmHg 94%
06:00 -17°C° 0.1 mm 5 mps 758 mmHg 93%
07:00 -15°C° 0.1 mm 5 mps 757 mmHg 93%
08:00 -15°C° 0.1 mm 6 mps 756 mmHg 93%
09:00 -14°C° 0.1 mm 6 mps 756 mmHg 93%
10:00 -12°C° 0.4 mm 6 mps 755 mmHg 94%
11:00 -11°C° 0.4 mm 6 mps 754 mmHg 94%
12:00 -11°C° 0.4 mm 7 mps 754 mmHg 94%
13:00 -8°C° 0.2 mm 7 mps 753 mmHg 94%
14:00 -7°C° 0.2 mm 7 mps 752 mmHg 95%
15:00 -4°C° 0.2 mm 7 mps 751 mmHg 95%
16:00 -4°C° 0.4 mm 7 mps 750 mmHg 96%
17:00 -3°C° 0.4 mm 7 mps 750 mmHg 97%
18:00 -2°C° 0.4 mm 7 mps 749 mmHg 98%
19:00 -2°C° 0.2 mm 6 mps 749 mmHg 98%
20:00 -2°C° 0.2 mm 6 mps 749 mmHg 99%
21:00 0°C° 0.2 mm 5 mps 749 mmHg 99%
22:00 0°C° 0 mm 5 mps 749 mmHg 99%
23:00 -1°C° 0 mm 4 mps 749 mmHg 99%

Day after tomorrow, 26 February, Friday

Time Temperature Precipitation Wind Pressure Humidity
00:00 -1°C° 0 mm 4 mps 749 mmHg 99%
01:00 -1°C° 0 mm 4 mps 749 mmHg 99%
02:00 0°C° 0 mm 4 mps 749 mmHg 99%
03:00 0°C° 0 mm 4 mps 749 mmHg 99%
04:00 0°C° 0 mm 4 mps 749 mmHg 99%
05:00 0°C° 0 mm 4 mps 749 mmHg 99%
06:00 -1°C° 0 mm 4 mps 748 mmHg 99%
07:00 0°C° 0.1 mm 4 mps 748 mmHg 99%
08:00 0°C° 0.1 mm 4 mps 748 mmHg 99%
09:00 0°C° 0.1 mm 4 mps 748 mmHg 99%
10:00 0°C° 0 mm 5 mps 748 mmHg 99%
11:00 0°C° 0 mm 5 mps 747 mmHg 99%
12:00 0°C° 0 mm 5 mps 747 mmHg 99%
13:00 0°C° 0 mm 5 mps 747 mmHg 99%
14:00 -1°C° 0 mm 6 mps 746 mmHg 98%
15:00 -1°C° 0 mm 6 mps 746 mmHg 98%
16:00 -1°C° 0.1 mm 6 mps 745 mmHg 98%
17:00 -1°C° 0.1 mm 6 mps 745 mmHg 98%
18:00 -1°C° 0.1 mm 6 mps 744 mmHg 98%
19:00 -1°C° 0 mm 6 mps 744 mmHg 98%
20:00 -1°C° 0 mm 7 mps 744 mmHg 98%
21:00 -1°C° 0 mm 7 mps 744 mmHg 97%
22:00 -1°C° 0 mm 6 mps 743 mmHg 97%
23:00 -1°C° 0 mm 6 mps 743 mmHg 96%

27 February, Saturday

Time Temperature Precipitation Wind Pressure Humidity
00:00 -1°C° 0 mm 6 mps 743 mmHg 95%
01:00 -1°C° 0 mm 6 mps 743 mmHg 94%
02:00 -2°C° 0 mm 6 mps 743 mmHg 93%
03:00 -2°C° 0 mm 6 mps 743 mmHg 92%
04:00 -2°C° 0 mm 6 mps 742 mmHg 92%
05:00 -2°C° 0 mm 6 mps 742 mmHg 93%
06:00 -2°C° 0 mm 6 mps 742 mmHg 93%
07:00 -1°C° 0 mm 5 mps 742 mmHg 93%
08:00 -1°C° 0 mm 5 mps 742 mmHg 94%
09:00 -1°C° 0 mm 5 mps 742 mmHg 95%
10:00 -1°C° 0 mm 5 mps 741 mmHg 96%
11:00 -2°C° 0 mm 6 mps 741 mmHg 97%
12:00 -2°C° 0 mm 6 mps 741 mmHg 98%
13:00 -2°C° 0 mm 6 mps 741 mmHg 98%
14:00 -1°C° 0 mm 5 mps 741 mmHg 98%
15:00 -1°C° 0 mm 5 mps 741 mmHg 99%
16:00 -1°C° 0.2 mm 5 mps 741 mmHg 98%
17:00 -2°C° 0.2 mm 5 mps 741 mmHg 98%
18:00 -2°C° 0.2 mm 5 mps 740 mmHg 97%
19:00 -2°C° 0.1 mm 4 mps 741 mmHg 97%
20:00 -2°C° 0.1 mm 4 mps 741 mmHg 97%
21:00 -2°C° 0.1 mm 4 mps 741 mmHg 97%
22:00 -2°C° 0.1 mm 4 mps 742 mmHg 97%
23:00 -2°C° 0.1 mm 4 mps 742 mmHg 97%

28 February, Sunday

Time Temperature Precipitation Wind Pressure Humidity
00:00 -3°C° 0.1 mm 4 mps 742 mmHg 96%
01:00 -3°C° 0 mm 4 mps 743 mmHg 96%
02:00 -3°C° 0 mm 4 mps 743 mmHg 95%
03:00 -2°C° 0 mm 3 mps 743 mmHg 95%
04:00 -5°C° 0 mm 4 mps 744 mmHg 94%
05:00 -7°C° 0 mm 4 mps 744 mmHg 93%
06:00 -8°C° 0 mm 4 mps 745 mmHg 91%
07:00 -9°C° 0 mm 4 mps 745 mmHg 90%
08:00 -9°C° 0 mm 4 mps 746 mmHg 89%
09:00 -10°C° 0 mm 4 mps 746 mmHg 87%
10:00 -10°C° 0 mm 4 mps 747 mmHg 87%
11:00 -9°C° 0 mm 4 mps 747 mmHg 87%
12:00 -9°C° 0 mm 4 mps 748 mmHg 87%
13:00 -9°C° 0 mm 4 mps 748 mmHg 86%
14:00 -8°C° 0 mm 4 mps 748 mmHg 86%
15:00 -8°C° 0 mm 5 mps 749 mmHg 86%
16:00 -8°C° 0 mm 5 mps 749 mmHg 87%
17:00 -8°C° 0 mm 5 mps 749 mmHg 87%
18:00 -10°C° 0 mm 5 mps 749 mmHg 88%
19:00 -9°C° 0 mm 4 mps 750 mmHg 89%
20:00 -9°C° 0 mm 4 mps 751 mmHg 89%
21:00 -9°C° 0 mm 4 mps 751 mmHg 90%
22:00 -8°C° 0 mm 3 mps 751 mmHg 91%
23:00 -8°C° 0 mm 3 mps 752 mmHg 92%

1 March, Monday

Time Temperature Precipitation Wind Pressure Humidity
00:00 -9°C° 0 mm 3 mps 752 mmHg 93%
01:00 -8°C° 0 mm 2 mps 752 mmHg 93%
02:00 -8°C° 0 mm 2 mps 753 mmHg 94%
03:00 -9°C° 0 mm 2 mps 753 mmHg 95%
04:00 -9°C° 0 mm 2 mps 753 mmHg 95%
05:00 -9°C° 0 mm 2 mps 753 mmHg 95%
06:00 -9°C° 0 mm 2 mps 754 mmHg 94%
07:00 -9°C° 0 mm 2 mps 754 mmHg 94%
08:00 -8°C° 0 mm 2 mps 754 mmHg 94%
09:00 -8°C° 0 mm 2 mps 755 mmHg 94%
10:00 -7°C° 0 mm 2 mps 755 mmHg 92%
11:00 -6°C° 0 mm 2 mps 755 mmHg 90%
12:00 -6°C° 0 mm 2 mps 756 mmHg 87%
13:00 -5°C° 0 mm 2 mps 756 mmHg 87%
14:00 -5°C° 0 mm 2 mps 756 mmHg 86%
15:00 -5°C° 0 mm 2 mps 756 mmHg 86%
16:00 -6°C° 0 mm 2 mps 756 mmHg 88%
17:00 -6°C° 0 mm 2 mps 756 mmHg 90%
18:00 -7°C° 0 mm 2 mps 756 mmHg 91%
19:00 -7°C° 0 mm 2 mps 756 mmHg 92%
20:00 -8°C° 0 mm 3 mps 755 mmHg 92%
21:00 -8°C° 0 mm 3 mps 755 mmHg 92%
22:00 -8°C° 0 mm 3 mps 755 mmHg 93%
23:00 -8°C° 0 mm 4 mps 755 mmHg 93%
Show more

We Need Your Consent

Meteoprog and our Service Providers may store and access personal data such as cookies, device identifiers or other similar technologies on your device and process such data to personalise content and ads, as well as provide social media features and to analyse the traffic.

  • Store and/or access information on your device

    Cookies, device identifiers or other information can be stored or accessed on your device for the purposes indicated above.

  • Personalised ads and content, ad and content measurement, audience insights, and products development

    Ads and content can be personalised based on a profile. More data can be added to better personalise ads and content. Ad and content performance can be measured. Insights about the audience who saw the ads and content can be derived. Such data can be used to develop or improve user’s experience, systems and software.

By clicking ‘I Agree’ you will allow the use of indicated cookies, device identifiers, web beacons or other similar technologies. Your settings can be changed in the browser on your device.

For certain purposes, legitimate interests may be relied on, rather than consent. You can read more about this in our Privacy and Cookie Policy.